This is the latest recevied weather packets stored in our database for station/object WA4OPQ-3. If no packets are shown the sender has not sent any weather packets the latest 10 day(s).
| Time | Temp. | Humidity | Pressure | Rain* | Wind** | Luminosity | Snow |
|---|---|---|---|---|---|---|---|
| 1777844071 | 20.56° C | 43% | 1016.3 hPa | 0 mm | - | 122 W/m² | - |
| 1777843466 | 20.56° C | 42% | 1016.5 hPa | 0 mm | - | 479 W/m² | - |
| 1777842860 | 21.11° C | 39% | 1016.7 hPa | 0 mm | - | 521 W/m² | - |
| 1777842255 | 20.56° C | 38% | 1016.8 hPa | 0 mm | - | 518 W/m² | - |
| 1777841650 | 21.11° C | 40% | 1016.9 hPa | 0 mm | - | 551 W/m² | - |
| 1777841046 | 21.11° C | 39% | 1017 hPa | 0 mm | - | 580 W/m² | - |
| 1777840441 | 21.11° C | 39% | 1017.2 hPa | 0 mm | - | 586 W/m² | - |
| 1777839836 | 21.11° C | 39% | 1017.2 hPa | 0 mm | - | 613 W/m² | - |
| 1777839231 | 20.56° C | 39% | 1017.3 hPa | 0 mm | - | 644 W/m² | - |
| 1777838625 | 20.56° C | 39% | 1017.7 hPa | 0 mm | - | 656 W/m² | - |
| 1777838020 | 20° C | 40% | 1017.9 hPa | 0 mm | - | 629 W/m² | - |
| 1777837417 | 20.56° C | 38% | 1018 hPa | 0 mm | - | 694 W/m² | - |
| 1777836812 | 20° C | 37% | 1018.4 hPa | 0 mm | - | 703 W/m² | - |
| 1777836206 | 20° C | 41% | 1018.6 hPa | 0 mm | - | 695 W/m² | - |
| 1777835602 | 19.44° C | 40% | 1018.5 hPa | 0 mm | - | 688 W/m² | - |
| 1777834996 | 20.56° C | 47% | 1018.5 hPa | 0 mm | - | 723 W/m² | - |
| 1777834391 | 20.56° C | 39% | 1019 hPa | 0 mm | - | 710 W/m² | - |
| 1777833786 | 19.44° C | 40% | 1018.7 hPa | 0 mm | - | 665 W/m² | - |
| 1777833181 | 19.44° C | 41% | 1019.2 hPa | 0 mm | - | 747 W/m² | - |
| 1777832575 | 19.44° C | 40% | 1019.3 hPa | 0 mm | - | 714 W/m² | - |
| 1777831970 | 18.89° C | 41% | 1019.3 hPa | 0 mm | - | 741 W/m² | - |
| 1777831366 | 19.44° C | 43% | 1019.7 hPa | 0 mm | - | 749 W/m² | - |
| 1777830761 | 18.89° C | 43% | 1019.4 hPa | 0 mm | - | 764 W/m² | - |
| 1777830156 | 19.44° C | 44% | 1019.8 hPa | 0 mm | - | 715 W/m² | - |
| 1777829551 | 18.33° C | 43% | 1019.7 hPa | 0 mm | - | 735 W/m² | - |
* Rain latest hour (hover to see other rain measurements)
** Current wind speed in m/s (hover to see current wind gust speed)